Wind_Speed
9 9 9 10 10 10 10 10 11 10 11 11 11 10 10 10 9 9 8 8 8 7 8 8 8 8 9 9 10 9 9 9 9 8 8 8 8 8 8 9 10 10 10
10 10 10 10 11 11 11 11 11 11 11 12 11 11 11 10 10 10 9 9 9 9 8 9 9 10 10 10 10 10 10 10 10 9 10 10 10 9 9 10 10 10 11
12 11 11 11 11 11 11 11 11 12 12 12 12 12 11 11 11 10 10 10 10 10 10 10 11 11 11 11 11 11 11 11 10 10 10 10 10 10 10 11 11 11 11
13 13 12 12 12 12 12 12 13 13 13 13 14 13 12 12 12 11 11 11 10 10 11 12 12 13 13 13 13 13 12 12 12 12 12 12 12 12 12 13 13 13 13
14 14 13 13 12 12 12 12 13 14 14 14 14 14 13 13 13 13 12 11 11 11 12 13 13 14 14 14 14 14 14 13 13 13 14 14 14 14 14 14 14 15 15
16 15 14 14 14 14 14 14 14 14 14 14 14 14 14 15 15 14 14 12 12 13 13 13 14 14 15 15 15 15 15 14 15 15 15 16 16 16 16 16 16 16 16
17 16 16 16 16 15 15 16 15 15 15 15 15 15 16 15 15 14 13 13 13 13 14 14 15 16 16 15 15 16 16 16 16 16 17 17 17 18 18 18 18 17 18
17 17 17 17 17 16 16 16 16 16 16 16 16 16 16 16 16 15 14 14 14 14 15 16 17 17 17 17 17 17 17 17 17 18 18 18 18 19 19 19 19 19 19
20 19 18 18 17 17 17 17 17 18 18 18 18 17 17 17 17 16 16 15 15 16 16 17 18 18 18 18 18 18 18 18 18 18 19 19 19 20 20 20 21 21 21
21 20 20 19 19 19 18 19 18 18 18 18 18 18 18 18 18 17 17 17 17 17 17 17 18 18 19 19 19 19 19 20 20 20 20 20 21 21 22 22 22 22 22
21 21 21 20 20 20 20 19 19 19 19 19 19 18 18 18 19 19 18 18 19 19 19 19 19 19 19 19 19 20 20 21 21 21 20 21 22 22 22 22 22 23 23
22 22 21 21 21 22 22 22 21 21 21 21 21 20 19 20 20 20 20 20 20 20 20 20 19 19 20 20 20 21 21 22 22 22 22 22 22 22 23 23 23 23 24
23 23 23 24 23 22 22 23 23 22 22 22 21 21 20 20 20 20 20 20 20 20 20 20 21 21 21 21 22 22 22 22 23 23 23 23 24 23 23 23 23 23 23
24 24 24 23 23 23 23 23 23 23 22 22 21 21 21 21 21 21 20 20 20 20 21 21 22 22 23 23 23 23 23 24 24 24 24 24 24 24 24 23 22 22 22
25 24 23 23 23 23 23 22 23 23 22 22 22 21 22 22 22 22 21 22 22 22 22 22 22 23 24 24 24 24 24 24 24 24 24 24 24 23 24 24 23 23 23
25 25 24 24 24 23 23 23 23 23 23 23 23 23 22 22 22 22 22 22 23 23 23 23 23 24 25 26 25 25 26 26 25 25 25 25 24 23 24 24 24 24 24
26 26 26 25 24 24 23 23 24 23 23 23 23 24 24 24 23 23 24 24 23 24 24 24 25 25 26 27 26 26 26 26 25 25 25 24 24 24 24 24 25 24 24
26 26 26 25 24 24 24 23 24 24 23 24 24 24 24 24 24 24 25 25 25 25 25 26 26 26 27 27 27 28 27 26 25 25 25 25 25 25 25 25 25 24 24
27 27 27 25 25 25 25 25 24 24 24 25 24 24 25 25 25 26 26 26 26 27 27 27 27 27 27 27 27 27 27 27 26 25 25 26 26 26 26 26 26 25 24
28 28 28 27 26 26 26 26 26 26 26 26 25 25 26 26 26 27 27 27 27 27 28 28 28 28 28 27 27 27 27 26 26 26 26 26 27 26 26 26 26 26 25
29 28 28 27 27 27 26 27 27 27 27 27 28 28 28 27 27 28 28 28 27 27 27 27 27 27 27 27 27 27 26 26 27 27 27 27 27 26 26 26 26 26 26
29 29 29 28 28 28 27 28 28 28 28 28 29 29 29 29 28 28 28 27 27 27 28 27 27 27 26 26 26 26 26 27 27 26 26 26 25 25 25 26 26 26 27
30 30 30 29 29 29 29 28 28 29 29 29 29 29 29 29 29 29 29 28 28 28 27 27 27 27 26 26 26 26 26 26 27 26 26 26 26 25 25 26 26 27 26
29 30 30 30 30 30 30 29 29 29 29 29 29 29 29 29 29 29 28 28 28 28 28 27 27 27 26 26 26 26 26 26 26 26 26 26 25 25 25 25 26 25 24
29 30 30 30 30 30 31 31 31 31 31 30 30 30 29 29 29 29 29 28 28 28 28 27 27 27 26 26 27 26 26 26 26 26 26 25 25 25 25 25 25 24 23
30 30 31 31 31 31 31 32 32 32 32 31 31 30 29 29 29 29 29 28 28 28 28 27 27 27 27 27 27 27 27 26 26 26 26 26 25 24 24 23 23 22 22
Wind_Direction
346 342 341 340 340 339 335 333 335 333 332 329 323 318 320 322 321 315 312 313 310 310 307 308 310 312 314 314 314 315 312 308 303 300 292 278 272 269 271 269 269 268 267
342 345 342 339 337 336 331 326 327 328 326 325 325 319 316 317 316 314 311 309 308 308 308 307 307 307 309 312 313 312 309 304 300 298 293 289 280 271 268 270 270 270 272
334 334 331 329 330 330 328 324 323 323 323 322 320 317 315 314 312 308 307 303 300 300 303 306 306 304 304 306 306 307 306 305 301 298 292 288 282 280 278 277 275 275 276
329 328 325 322 323 324 324 322 320 320 319 319 319 315 313 309 307 303 301 301 300 297 298 302 303 303 302 301 300 300 301 301 299 297 294 289 284 281 280 279 277 278 279
321 323 323 317 317 318 318 317 319 317 317 316 316 313 309 307 305 301 299 299 299 301 300 299 300 302 303 301 299 297 297 297 297 294 291 287 284 282 278 278 277 278 279
315 316 318 314 313 313 313 313 315 315 314 315 313 311 309 307 305 301 297 297 300 301 302 302 301 304 305 303 299 298 295 294 294 292 290 287 284 283 281 279 278 279 278
310 313 311 310 310 310 310 308 310 310 310 310 309 309 308 307 305 300 296 298 300 301 303 301 300 301 304 304 301 298 295 294 292 291 290 287 284 282 282 282 280 279 279
303 307 307 310 308 307 308 305 305 306 306 307 307 306 306 305 303 299 296 295 295 297 299 300 298 298 299 300 300 300 296 294 292 290 288 287 286 284 282 282 280 278 277
304 303 303 305 307 304 304 304 302 302 302 303 304 304 303 304 300 296 295 293 294 295 296 297 298 298 298 297 299 298 298 295 293 291 289 288 286 285 284 282 281 279 278
298 298 299 300 303 302 302 302 301 302 302 301 302 301 300 301 300 296 294 291 290 291 294 295 295 296 296 296 297 297 297 295 293 291 290 288 287 285 284 284 283 281 280
293 295 295 297 301 302 301 302 301 301 301 300 298 298 299 299 298 297 294 291 289 290 291 292 294 295 295 294 295 296 295 294 294 293 291 289 288 287 285 284 283 281 281
293 293 293 297 299 300 300 301 302 299 298 298 297 297 297 298 299 296 294 293 291 289 289 290 291 293 293 294 294 294 294 294 294 293 292 290 289 288 288 286 283 282 281
290 290 292 295 295 295 296 299 300 299 297 296 297 297 297 298 298 296 293 293 292 290 289 290 291 291 293 293 294 293 293 294 294 294 293 292 290 288 286 286 285 284 282
286 289 290 291 292 293 293 294 296 297 296 295 296 295 294 295 296 295 294 291 290 289 288 289 292 291 291 291 291 292 291 291 294 295 294 292 290 288 287 287 286 285 284
284 286 287 289 291 293 294 293 294 296 295 293 293 292 293 294 294 293 294 292 290 288 287 287 289 291 291 290 291 292 292 291 291 292 292 291 290 289 286 288 287 285 284
285 289 289 291 290 291 292 292 293 293 294 292 292 292 291 292 293 292 293 292 290 289 288 288 289 289 289 290 292 292 291 290 289 287 288 289 288 286 285 286 286 286 283
285 288 289 289 289 289 288 289 290 291 292 292 291 292 291 291 292 292 292 291 291 290 289 288 289 289 288 289 290 291 291 290 288 286 286 285 285 284 284 284 285 284 283
285 287 288 288 288 287 286 287 288 289 290 291 290 290 291 292 292 293 292 291 291 292 290 289 288 288 288 289 291 291 291 291 287 286 285 283 283 283 283 282 282 281 281
284 286 288 288 287 286 286 286 285 287 289 289 289 289 291 292 293 293 293 292 292 291 290 289 288 289 288 289 290 291 291 290 288 286 285 283 283 284 282 281 281 279 279
283 284 285 286 286 284 285 285 285 285 287 288 289 290 291 292 293 293 293 293 292 290 289 288 288 288 287 288 289 291 291 290 289 286 285 285 283 282 282 281 280 280 279
281 282 283 284 285 284 284 284 286 286 286 287 288 289 290 290 291 292 293 293 292 291 290 288 288 288 287 286 287 289 289 290 290 288 286 286 285 283 282 280 279 280 280
278 280 281 281 283 284 285 285 285 286 286 287 287 288 288 288 289 290 291 291 290 291 291 289 289 289 288 287 287 289 289 289 289 290 290 287 284 282 281 280 279 281 282
277 278 280 281 282 284 285 285 286 287 287 287 288 288 288 288 288 289 290 290 290 290 289 288 289 288 288 289 289 288 290 290 289 289 289 287 283 281 282 282 281 281 282
277 277 279 280 281 282 283 284 285 287 288 288 289 289 288 288 288 288 290 290 290 289 288 288 288 288 288 288 290 290 292 291 290 289 289 288 285 283 283 284 284 281 279
279 278 278 279 281 281 282 283 284 285 287 288 290 291 291 290 290 290 290 290 290 290 288 286 286 285 285 287 289 291 292 292 289 289 287 287 286 284 284 283 282 280 280
279 280 279 278 279 280 281 281 283 284 285 286 288 289 290 291 291 290 289 288 289 289 288 287 284 283 283 285 287 289 289 290 289 287 287 286 286 287 286 284 280 278 279
Height
5898 5897 5895 5894 5893 5892 5891 5890 5888 5887 5886 5885 5884 5883 5882 5881 5879 5879 5878 5877 5877 5877 5876 5876 5876 5875 5875 5874 5873 5873 5872 5872 5871 5871 5871 5871 5871 5872 5872 5872 5873 5874 5874
5897 5896 5895 5894 5893 5891 5890 5889 5888 5886 5885 5884 5882 5881 5880 5879 5878 5877 5877 5876 5876 5876 5875 5875 5874 5874 5873 5873 5872 5871 5871 5870 5870 5870 5870 5870 5870 5869 5869 5870 5870 5871 5871
5897 5896 5894 5893 5892 5891 5889 5888 5886 5885 5883 5882 5881 5880 5879 5878 5877 5876 5875 5875 5874 5874 5874 5873 5873 5872 5872 5871 5870 5870 5869 5868 5868 5867 5868 5867 5867 5867 5867 5867 5868 5868 5868
5896 5895 5893 5892 5891 5889 5888 5887 5885 5884 5882 5880 5879 5878 5877 5876 5875 5874 5873 5873 5872 5872 5872 5872 5871 5870 5870 5869 5868 5867 5867 5866 5866 5865 5865 5865 5864 5864 5865 5865 5865 5865 5865
5894 5893 5892 5890 5889 5888 5886 5885 5884 5882 5880 5878 5877 5875 5874 5873 5873 5872 5871 5871 5870 5870 5870 5869 5869 5868 5867 5866 5866 5865 5864 5864 5863 5863 5862 5862 5861 5861 5861 5862 5862 5862 5862
5892 5891 5890 5888 5887 5886 5884 5883 5882 5880 5878 5877 5875 5873 5872 5871 5870 5869 5869 5868 5868 5868 5867 5867 5866 5865 5864 5864 5863 5862 5861 5860 5860 5859 5859 5858 5858 5857 5857 5857 5857 5857 5857
5890 5888 5887 5886 5884 5883 5882 5880 5879 5878 5876 5875 5873 5871 5870 5869 5867 5867 5866 5866 5866 5865 5865 5864 5863 5862 5861 5860 5859 5858 5857 5857 5856 5856 5855 5854 5854 5853 5853 5853 5853 5852 5852
5885 5885 5884 5882 5881 5879 5879 5877 5876 5875 5873 5872 5871 5869 5868 5866 5865 5864 5863 5863 5863 5862 5861 5860 5859 5858 5858 5857 5856 5855 5854 5853 5852 5851 5851 5850 5849 5849 5848 5848 5848 5847 5847
5884 5882 5881 5880 5879 5877 5876 5875 5873 5872 5870 5869 5868 5866 5865 5864 5862 5861 5860 5859 5859 5858 5858 5857 5856 5854 5853 5852 5852 5851 5850 5849 5848 5847 5846 5845 5845 5844 5844 5843 5843 5843 5842
5880 5879 5877 5876 5875 5874 5873 5871 5870 5869 5867 5866 5864 5863 5862 5860 5859 5858 5857 5856 5855 5854 5853 5852 5851 5850 5849 5848 5847 5846 5845 5845 5843 5842 5841 5841 5840 5839 5838 5838 5837 5836 5836
5876 5875 5874 5872 5871 5870 5869 5868 5866 5865 5863 5862 5861 5859 5858 5857 5855 5854 5853 5852 5851 5850 5849 5848 5847 5846 5844 5843 5842 5841 5841 5839 5838 5837 5836 5835 5834 5833 5833 5832 5831 5831 5830
5873 5871 5869 5868 5867 5865 5864 5863 5862 5860 5859 5857 5856 5855 5853 5852 5851 5850 5848 5847 5846 5845 5844 5843 5842 5841 5840 5839 5837 5836 5835 5834 5833 5832 5831 5829 5828 5827 5826 5826 5825 5824 5824
5868 5867 5865 5864 5863 5862 5860 5858 5857 5856 5854 5853 5851 5850 5848 5847 5846 5845 5843 5842 5841 5840 5839 5838 5837 5835 5834 5833 5832 5831 5829 5828 5827 5826 5825 5823 5822 5821 5820 5819 5818 5818 5817
5863 5862 5861 5859 5858 5857 5855 5854 5852 5851 5849 5847 5846 5845 5843 5842 5841 5839 5838 5837 5835 5834 5833 5832 5831 5830 5828 5827 5826 5825 5824 5822 5821 5820 5819 5817 5816 5814 5813 5813 5812 5811 5810
5857 5855 5854 5854 5853 5851 5850 5848 5847 5845 5844 5842 5841 5840 5838 5837 5835 5834 5832 5831 5830 5828 5827 5826 5825 5824 5822 5821 5820 5818 5817 5816 5815 5813 5812 5811 5809 5808 5807 5806 5805 5804 5803
5851 5849 5848 5848 5847 5846 5844 5843 5842 5840 5838 5837 5835 5834 5832 5831 5830 5828 5827 5825 5824 5822 5821 5820 5819 5818 5816 5815 5813 5812 5810 5809 5808 5807 5806 5805 5803 5802 5801 5800 5799 5798 5797
5846 5845 5843 5842 5840 5840 5839 5837 5836 5834 5833 5831 5830 5828 5827 5825 5824 5822 5821 5819 5818 5816 5814 5813 5812 5811 5810 5808 5806 5805 5803 5802 5801 5800 5799 5798 5796 5795 5794 5793 5792 5791 5790
5840 5839 5837 5836 5835 5834 5832 5831 5830 5829 5827 5826 5824 5822 5821 5819 5818 5816 5814 5813 5811 5810 5808 5806 5805 5804 5802 5801 5799 5798 5796 5795 5794 5793 5792 5790 5789 5788 5787 5786 5785 5784 5783
5834 5833 5831 5830 5829 5827 5826 5825 5824 5822 5821 5820 5818 5816 5815 5813 5811 5810 5808 5806 5804 5802 5801 5799 5798 5797 5795 5793 5792 5790 5789 5788 5787 5786 5784 5783 5782 5781 5780 5779 5777 5776 5775
5827 5826 5824 5823 5822 5821 5819 5818 5817 5816 5815 5813 5812 5810 5808 5806 5805 5803 5801 5799 5797 5795 5793 5792 5791 5789 5788 5786 5785 5783 5782 5781 5780 5778 5777 5776 5774 5773 5772 5771 5770 5769 5768
5820 5819 5817 5816 5815 5814 5813 5811 5810 5808 5807 5806 5804 5803 5801 5799 5797 5795 5793 5791 5789 5788 5786 5784 5783 5782 5780 5779 5777 5776 5774 5773 5772 5770 5769 5768 5766 5766 5764 5763 5763 5762 5761
5812 5811 5810 5808 5807 5806 5805 5804 5803 5801 5799 5798 5797 5795 5793 5791 5789 5788 5786 5784 5782 5780 5778 5777 5776 5774 5773 5771 5770 5768 5766 5765 5764 5763 5761 5760 5759 5758 5757 5756 5755 5754 5753
5804 5803 5802 5801 5800 5799 5798 5796 5795 5793 5792 5790 5789 5787 5785 5783 5781 5780 5778 5776 5774 5773 5771 5769 5768 5767 5765 5764 5762 5761 5759 5757 5756 5755 5754 5752 5751 5750 5750 5748 5747 5746 5745
5795 5795 5794 5793 5792 5791 5789 5788 5787 5785 5783 5782 5780 5779 5777 5775 5773 5772 5770 5768 5767 5765 5763 5762 5760 5759 5758 5756 5755 5753 5752 5750 5748 5747 5746 5745 5743 5742 5742 5740 5739 5738 5737
5785 5785 5785 5784 5783 5782 5781 5780 5778 5777 5776 5774 5772 5771 5769 5767 5765 5764 5762 5760 5759 5757 5755 5754 5752 5751 5750 5749 5748 5746 5744 5743 5741 5739 5738 5737 5736 5735 5733 5732 5731 5730 5729
5777 5777 5776 5775 5775 5774 5772 5771 5770 5768 5767 5766 5764 5762 5761 5759 5757 5755 5754 5752 5751 5749 5747 5745 5744 5743 5742 5741 5740 5739 5737 5735 5733 5732 5731 5730 5728 5727 5725 5724 5723 5722 5722